Theta_e
325 324 325 325 326 326 326 324 323 323 324 325 325 325 326 326 326 326 326 326 326 326 327 327 328 327 327 326 325 325 326 327 327 328 328 328 329 330 330 332 332 333 332 333 333 334 334 334 334 332 331 331 331 331 331 330 330 332 334 337 339 340 340 340 340 338 337 337 338 339 339 339 337 335 334 335 336 338 339 339 339 339 338 337 337
323 323 324 325 326 326 325 324 323 323 324 325 326 326 327 327 326 326 326 326 326 326 326 326 326 326 325 325 324 324 326 327 328 328 329 330 330 330 330 332 332 333 333 333 333 334 335 334 334 332 331 330 330 330 331 331 331 331 332 335 336 338 339 339 339 338 338 338 338 337 338 339 338 335 334 335 334 335 338 339 340 341 340 339 339
321 322 324 325 326 325 324 324 323 324 326 326 326 326 327 327 327 327 327 327 327 326 325 325 324 324 324 324 324 325 327 327 327 328 330 330 331 331 331 332 333 333 334 334 333 334 334 334 334 333 331 330 330 329 331 331 331 331 332 333 333 336 339 338 337 337 338 339 339 338 337 338 339 336 334 335 336 335 336 338 341 341 341 340 340
321 322 324 325 326 324 323 323 323 324 326 327 326 326 327 327 328 327 327 327 326 325 325 325 324 323 323 323 325 326 327 327 327 330 331 332 332 332 331 332 333 334 334 334 334 334 334 334 334 333 331 330 329 328 330 332 331 331 332 331 330 332 336 338 337 336 336 338 339 339 338 338 339 338 336 336 336 336 335 338 341 340 340 340 340
320 322 324 324 324 323 322 323 323 324 325 326 326 326 327 326 326 326 326 327 326 325 326 325 324 323 323 324 326 327 327 325 325 328 330 330 331 332 332 332 333 334 335 335 334 334 334 334 334 335 333 332 331 329 329 331 332 331 330 329 330 331 335 338 338 336 335 337 339 339 339 339 339 340 339 337 336 335 336 337 340 341 340 340 339
320 323 324 323 323 322 322 323 323 324 324 325 325 325 325 325 325 325 326 326 326 325 326 325 324 324 323 325 327 327 326 325 324 325 325 326 327 329 330 331 332 334 335 335 335 334 334 333 334 336 334 333 332 331 330 330 331 331 329 329 332 334 334 337 339 337 335 336 338 339 339 339 340 340 339 337 336 336 337 338 341 342 340 339 339
321 323 323 323 322 322 321 322 323 323 323 323 323 323 322 323 325 326 326 327 326 326 326 325 325 324 324 326 327 327 327 325 324 325 325 325 325 326 327 328 329 330 333 335 335 334 334 334 334 336 335 334 334 333 332 330 331 331 331 332 335 336 335 337 338 338 335 334 336 338 339 340 340 340 339 338 336 337 337 338 340 342 341 339 339
322 323 322 322 322 321 321 322 322 322 322 322 322 321 321 322 324 326 326 326 326 325 325 325 326 325 325 326 327 327 327 325 325 325 324 325 326 327 328 328 328 328 328 331 334 334 334 334 334 335 335 335 335 335 334 333 333 334 334 335 336 335 336 337 337 337 336 334 333 334 336 339 340 340 340 338 337 337 338 338 341 341 340 340 339
322 322 321 322 322 322 322 322 322 322 322 322 322 321 321 323 325 326 327 326 326 325 325 326 326 326 326 326 326 326 327 326 325 325 324 324 326 327 328 328 329 329 327 328 330 332 334 334 334 334 333 334 334 334 334 333 333 333 334 335 336 335 335 337 336 336 336 335 332 331 334 337 340 340 339 337 337 338 338 339 341 341 341 341 340
321 321 321 322 323 322 322 323 322 322 322 322 323 324 324 325 326 326 327 327 327 326 325 325 326 326 326 326 326 326 326 326 325 324 323 324 324 326 327 328 329 330 330 329 328 330 332 333 334 334 334 334 333 333 333 332 332 332 332 333 334 334 335 335 335 335 335 335 333 332 334 336 338 338 337 336 337 338 339 340 341 341 341 341 340
320 321 321 321 322 323 324 323 323 322 322 323 325 326 326 327 327 326 327 327 326 326 325 325 325 326 326 326 326 326 326 326 325 324 323 323 324 325 327 327 329 331 331 331 329 330 331 331 332 334 334 335 334 333 333 332 332 332 332 333 333 333 334 334 334 334 334 334 333 334 335 335 335 334 334 336 338 339 340 340 341 341 341 341 340
321 322 322 322 323 324 324 324 322 321 322 323 324 325 325 327 327 327 327 326 325 325 325 324 325 326 326 326 326 326 326 326 325 323 323 323 324 326 326 326 328 330 332 332 332 331 331 332 332 333 333 335 334 334 333 333 333 333 333 333 334 334 333 333 333 334 334 334 334 334 335 335 334 334 334 336 338 339 339 341 341 341 341 341 341
322 323 324 325 325 326 325 325 323 322 322 322 322 323 323 325 326 326 326 325 324 324 324 324 325 325 326 326 325 325 326 326 325 323 322 323 324 325 325 325 327 329 331 333 334 333 334 335 335 335 334 335 334 335 335 335 335 335 334 334 334 334 334 333 333 333 333 334 334 334 334 334 334 334 333 335 337 339 340 341 340 339 341 342 341
324 324 325 326 327 327 326 326 323 321 320 319 319 320 321 323 324 325 324 324 324 325 324 325 325 325 326 325 324 325 326 325 324 322 322 323 324 325 324 324 325 328 330 333 334 335 335 336 337 337 337 337 336 337 337 337 337 337 336 335 335 335 335 335 334 333 333 334 335 335 335 334 335 335 334 334 338 340 340 339 339 340 341 341 339
326 326 326 326 327 328 327 326 322 320 319 318 319 320 321 322 323 324 323 323 324 324 324 325 324 324 324 323 323 325 326 325 324 322 322 322 323 324 325 323 324 326 329 330 332 335 336 336 337 337 336 336 336 336 337 337 337 337 337 337 336 336 336 336 335 334 334 334 335 336 336 335 335 337 337 337 340 341 340 339 339 341 340 338 336
327 327 327 327 328 328 326 324 321 320 319 318 319 321 321 322 323 324 323 324 324 324 324 325 323 322 322 322 323 325 324 323 323 323 323 322 323 324 325 323 323 324 327 328 330 333 334 334 335 335 335 336 336 336 336 336 337 338 338 338 337 337 337 337 336 335 334 335 336 337 336 335 337 340 340 341 342 340 339 339 341 341 338 336 334
328 329 328 327 328 327 325 323 321 319 319 319 320 320 320 322 323 324 323 324 324 324 324 324 323 322 323 321 322 325 323 321 323 324 323 322 322 323 324 323 322 323 325 326 329 330 331 332 332 333 335 336 336 337 337 337 339 339 339 339 339 338 338 337 336 334 334 336 337 337 337 337 339 342 342 342 340 337 337 339 340 340 338 335 333
327 329 328 327 326 325 324 323 321 319 319 319 319 320 321 323 323 323 323 323 323 324 324 323 322 323 323 320 321 324 324 322 323 323 323 323 323 322 323 323 323 323 322 323 325 327 329 330 331 332 334 335 336 337 338 339 340 341 340 340 339 339 338 337 336 336 336 338 339 338 338 339 341 342 342 340 338 336 336 338 339 339 337 335 334
325 326 327 327 325 322 323 323 320 319 319 319 319 319 322 323 323 322 322 321 322 324 323 322 322 323 323 321 320 324 325 323 323 322 321 322 324 323 323 323 324 324 322 321 322 324 325 327 329 330 332 333 334 336 337 337 338 340 340 339 339 338 338 337 337 337 339 339 339 338 339 341 342 342 341 338 336 336 337 338 339 337 336 335 337
323 324 325 326 324 322 321 321 320 319 320 320 319 319 321 322 321 320 320 319 321 322 322 322 322 323 323 321 319 322 325 325 325 324 321 320 322 324 324 323 324 324 323 321 321 322 322 324 326 328 329 331 332 333 335 336 336 338 338 338 338 338 338 338 339 339 339 339 338 339 341 341 341 341 340 337 336 336 339 339 337 335 335 337 339
323 323 324 324 323 322 322 323 322 321 320 320 319 318 320 321 320 319 319 320 320 321 321 322 322 323 323 321 317 320 325 326 326 326 325 321 320 320 322 323 325 324 323 322 323 322 321 321 323 325 326 328 330 331 332 333 335 336 337 337 338 338 338 338 339 340 340 339 339 340 340 341 341 340 338 336 336 338 340 338 335 334 336 338 338
323 324 324 323 323 323 325 326 323 321 321 321 320 319 319 320 319 319 320 320 320 321 321 322 322 322 323 322 318 318 324 326 326 326 326 324 322 320 320 322 325 325 323 323 324 324 323 320 321 322 323 324 326 328 329 330 332 334 335 336 336 336 337 337 338 339 339 339 339 340 340 340 340 339 336 336 338 339 338 335 335 336 337 338 338
323 324 324 324 324 324 326 325 322 321 321 321 320 320 319 319 320 320 320 320 320 321 320 321 322 322 322 323 320 317 320 324 324 323 322 323 323 322 321 322 325 326 324 323 324 325 325 321 319 321 322 322 324 325 326 327 328 330 332 334 335 336 337 336 336 337 338 338 339 339 339 339 338 336 335 336 338 338 337 336 337 338 339 339 338
324 324 324 324 324 325 326 325 322 321 321 320 320 320 320 319 320 320 321 320 321 321 320 320 321 321 321 323 323 319 318 320 321 320 319 319 320 321 322 323 325 325 324 324 324 326 326 323 319 320 322 322 323 323 323 323 324 326 329 331 333 335 336 337 337 337 337 337 337 338 338 337 336 335 336 338 338 338 338 337 338 340 340 339 338
325 324 324 324 324 324 325 324 321 321 321 320 321 320 320 320 320 320 320 321 321 321 321 321 320 321 321 322 323 322 319 318 319 319 319 319 318 319 319 322 324 325 324 324 325 326 327 325 321 321 322 323 324 323 322 322 322 324 325 327 330 333 334 335 336 337 337 337 336 337 337 337 337 337 338 338 337 336 336 335 336 338 338 338 338
324 324 324 323 323 324 325 323 321 321 321 321 321 321 321 321 321 321 321 321 321 321 322 321 321 321 321 321 323 323 322 321 320 319 319 320 320 319 318 319 322 323 323 323 324 326 327 326 324 322 322 324 325 325 324 322 321 322 323 323 326 330 332 333 334 334 334 335 336 336 336 336 336 335 334 334 333 332 332 333 333 334 334 333 333
324 323 323 323 322 324 324 323 321 321 321 321 321 321 321 321 321 321 321 321 321 322 322 322 321 321 321 321 321 322 323 322 322 321 320 321 320 319 318 319 320 322 322 323 323 324 325 325 325 324 323 325 326 326 326 323 321 321 322 322 323 325 328 331 332 332 332 333 333 334 334 333 333 332 332 333 333 332 333 333 333 333 334 334 333
324 323 323 322 322 324 324 322 321 321 321 321 321 320 321 321 321 321 321 321 322 322 322 322 322 321 321 321 320 321 323 323 323 322 321 321 321 320 318 318 319 320 320 321 321 322 322 322 324 325 325 325 325 325 326 325 323 322 322 322 321 322 323 326 329 330 330 330 330 331 332 331 331 331 331 332 333 333 333 334 335 335 336 337 337
323 323 322 322 323 324 323 322 321 321 321 321 321 321 321 321 321 321 321 321 322 322 322 322 322 321 321 321 320 320 322 323 323 323 322 321 321 320 318 318 319 320 320 319 319 319 320 321 322 325 325 324 324 325 325 325 325 325 323 322 321 321 321 322 324 326 326 326 326 327 328 328 329 330 330 331 332 332 332 333 334 335 336 337 337
323 322 322 323 324 324 323 322 321 321 321 321 321 321 321 321 321 321 321 322 322 322 322 322 322 321 320 320 320 320 321 322 323 323 322 322 321 321 319 318 318 318 319 318 318 318 320 321 322 323 324 322 322 324 325 325 326 325 324 323 322 322 321 321 321 321 322 323 323 323 324 324 324 325 326 327 328 328 328 329 330 330 331 333 335
322 322 322 323 324 324 323 323 322 321 321 321 321 321 321 321 321 321 321 322 322 322 322 322 321 320 320 320 320 320 320 321 322 323 322 322 321 321 320 318 317 318 318 318 317 318 320 321 322 322 322 321 322 323 323 325 325 325 325 324 323 322 322 321 321 321 321 321 321 322 322 322 322 322 323 323 323 323 324 324 324 325 324 326 329
321 322 322 322 323 323 322 322 322 321 321 321 321 321 321 321 322 322 322 321 322 322 322 321 321 320 320 320 320 320 320 320 321 322 323 322 322 322 321 320 318 317 318 317 317 318 320 321 322 322 321 320 322 322 322 323 325 325 325 325 325 324 323 322 322 322 321 321 321 321 321 321 321 320 320 320 320 321 322 322 323 324 323 322 324
321 322 322 323 323 323 323 323 321 321 321 322 321 321 321 321 322 322 322 322 322 322 321 321 320 320 321 320 320 320 320 320 320 320 321 323 322 321 321 321 319 318 317 317 316 317 319 320 322 322 321 320 321 321 321 322 323 325 325 325 325 325 324 324 323 322 322 321 320 320 320 321 321 321 320 320 320 320 320 320 322 325 324 323 323
321 322 323 323 324 325 325 324 322 322 322 322 321 321 321 322 322 322 321 322 322 322 321 321 321 320 320 320 320 320 319 319 319 319 320 322 323 321 321 321 321 320 319 319 318 317 317 319 321 323 322 322 322 321 320 320 322 324 325 325 324 325 324 325 324 324 323 322 321 320 320 320 320 321 321 321 321 321 321 320 320 322 324 325 325
321 322 322 323 323 324 324 324 323 323 322 322 321 321 322 322 321 321 321 321 321 321 321 320 320 320 320 319 319 319 319 319 319 319 319 320 322 322 321 321 321 321 321 321 321 320 319 318 320 321 322 322 322 322 321 320 320 322 324 324 324 323 323 324 324 325 324 324 323 322 322 321 321 320 320 320 321 322 322 322 321 320 321 323 324
322 323 322 322 322 323 323 323 323 322 321 321 322 322 322 321 321 320 321 320 320 320 320 319 319 319 319 319 318 318 318 318 318 319 319 320 321 321 321 321 320 320 321 321 321 321 321 320 320 321 321 321 321 321 321 321 320 320 321 322 323 322 322 322 323 324 324 325 324 324 323 323 323 323 322 322 322 322 322 322 322 322 321 322 323
322 321 322 321 321 322 323 322 321 321 321 321 322 322 321 320 320 320 320 319 319 319 318 318 319 318 318 318 318 317 317 317 318 319 319 319 320 321 321 320 320 320 320 320 319 320 320 320 320 321 321 321 321 321 321 321 320 320 320 321 321 322 323 323 323 324 325 325 326 325 325 325 324 324 324 325 325 325 324 324 323 323 323 322 322
319 319 320 320 320 321 322 321 321 320 321 322 322 321 321 320 319 319 319 318 317 316 316 316 317 317 317 317 317 317 316 316 317 318 318 318 319 319 319 319 319 319 319 319 318 319 319 319 320 321 321 321 321 321 321 321 321 321 320 320 321 321 322 323 323 323 324 325 325 325 326 325 325 325 325 325 325 325 325 324 323 323 323 323 323
318 319 320 320 321 321 320 320 321 321 322 322 322 321 320 319 319 319 318 317 315 314 314 315 315 315 316 316 316 316 316 316 316 317 317 317 318 318 318 318 318 318 318 318 318 318 318 319 319 320 320 321 321 321 321 321 321 321 321 320 320 320 320 321 321 321 322 322 323 324 324 324 324 324 324 325 325 325 324 324 323 323 323 323 323
321 321 322 322 322 321 321 321 321 321 322 321 321 320 319 319 319 318 317 316 315 313 312 313 314 314 314 315 315 315 316 316 316 317 317 317 317 317 317 317 317 317 318 318 318 318 318 318 318 318 319 320 321 321 321 321 321 321 321 321 321 321 320 320 320 320 320 320 321 322 323 324 324 323 323 324 324 325 325 324 324 324 323 323 323
322 322 322 322 322 322 322 322 321 321 321 321 320 319 318 318 318 317 316 315 314 312 310 311 312 313 313 313 313 314 315 315 316 316 316 315 314 314 314 314 314 315 316 316 316 317 317 317 317 317 318 318 319 319 319 319 320 320 321 321 321 321 321 320 320 320 320 320 320 321 321 322 323 323 322 322 322 323 325 325 324 324 324 324 324
321 322 322 321 322 322 321 321 321 320 320 320 319 319 319 318 317 316 314 313 311 310 308 309 310 310 310 311 312 313 314 314 314 314 314 313 313 312 312 312 312 313 313 313 314 314 315 316 316 316 316 316 317 317 318 318 318 318 319 319 319 320 320 320 321 321 321 321 321 322 322 322 322 322 322 322 322 323 324 324 324 324 324 324 324
320 321 321 321 321 321 320 320 320 320 320 320 319 317 316 315 314 313 312 310 309 308 308 307 307 308 309 309 310 311 312 312 313 312 312 312 312 312 312 312 312 312 312 312 312 312 313 314 314 314 314 314 314 315 315 315 316 316 316 316 317 318 318 318 319 319 320 320 321 321 321 322 322 322 322 322 321 321 322 322 323 323 323 323 324
321 321 321 320 320 320 319 319 319 319 318 316 314 312 310 309 308 309 309 309 308 308 307 307 306 307 307 308 308 308 309 310 311 311 310 311 311 311 310 310 311 311 311 312 311 311 312 312 312 312 312 312 312 312 312 312 312 312 313 313 314 314 315 316 316 317 317 317 318 318 318 319 320 321 321 322 322 322 322 322 322 322 322 322 323
320 321 321 320 319 319 319 317 316 314 312 309 308 307 306 305 305 306 307 308 308 308 307 306 306 306 306 306 306 306 307 308 308 308 309 309 309 308 307 307 308 308 308 309 309 309 310 310 309 309 310 310 310 310 309 309 309 309 310 310 310 311 312 313 313 313 314 314 314 315 316 316 317 318 319 320 320 321 322 322 321 321 321 321 321
319 320 319 319 317 316 314 312 310 308 307 305 304 304 304 304 304 305 305 306 306 306 306 305 304 304 304 304 304 305 305 305 306 306 306 307 307 306 306 306 306 306 306 306 306 307 307 307 307 307 308 308 307 307 307 307 307 308 308 308 308 309 309 310 310 310 310 311 311 312 312 313 313 314 315 316 317 317 319 320 321 321 321 320 321
316 316 315 314 313 311 309 308 307 306 305 303 302 301 301 302 302 303 303 303 303 304 303 303 302 302 302 302 302 302 302 302 302 302 302 303 303 304 305 305 305 305 305 304 304 304 304 304 304 304 304 304 304 304 304 304 304 305 306 306 307 307 307 308 309 309 309 309 309 310 310 310 310 311 312 313 313 314 315 316 318 319 320 321 320
312 311 311 310 309 308 308 307 306 305 303 301 300 300 300 300 300 300 300 301 301 301 301 300 300 300 300 300 300 300 299 299 299 299 299 299 300 300 301 302 302 302 301 301 301 301 301 301 301 301 301 301 301 301 301 301 301 301 301 302 302 303 303 304 305 306 307 308 308 309 309 309 309 309 309 309 310 311 312 312 313 314 317 318 319
309 309 309 308 308 307 307 306 304 302 300 299 299 299 298 298 297 298 298 298 299 299 298 298 298 298 297 298 298 297 297 297 297 297 297 297 297 297 298 298 299 299 299 299 299 299 299 299 299 299 299 299 298 298 298 297 297 297 298 298 298 298 298 299 300 301 302 303 305 306 307 307 307 307 308 308 308 308 309 309 310 310 311 313 315
308 308 307 307 306 306 305 303 302 300 299 299 298 298 297 296 296 296 296 296 297 297 297 296 296 296 296 296 296 296 296 296 295 295 295 295 294 294 294 294 295 295 296 296 296 296 296 296 296 296 295 295 295 294 294 294 294 294 294 294 295 295 295 295 295 296 296 297 298 300 301 303 303 304 304 305 305 305 306 307 308 308 308 308 310
305 305 305 304 304 303 302 301 300 299 299 298 298 297 296 296 296 296 296 296 296 295 296 296 296 295 295 295 295 295 295 295 294 294 294 293 292 291 290 291 291 291 292 292 292 292 292 292 292 292 292 292 292 292 291 290 290 290 290 290 290 291 291 291 292 292 293 293 293 294 295 297 298 299 300 301 302 303 303 304 305 306 306 307 307
Wind_Speed
14 14 14 14 14 14 14 15 16 18 18 18 19 17 15 14 14 14 15 15 15 14 14 13 13 14 15 16 18 19 20 22 23 25 27 29 30 32 33 34 35 36 38 39 39 39 42 42 40 39 37 36 35 35 34 34 32 30 29 29 31 32 34 37 39 40 39 38 38 37 35 34 31 25 22 22 21 20 19 18 18 18 18 18 19
14 14 13 13 14 14 14 14 16 17 18 18 17 15 13 13 13 14 15 14 13 12 12 13 15 16 17 18 19 19 20 21 23 25 26 27 28 29 31 31 33 34 35 37 38 39 41 41 40 40 38 36 36 35 35 37 36 34 32 31 32 33 33 35 37 38 39 38 39 39 39 38 36 30 26 24 23 22 22 21 21 21 20 20 20
13 13 12 12 13 13 13 13 15 16 16 16 15 14 12 12 13 14 15 13 11 11 12 14 15 17 17 18 18 19 21 23 25 26 25 25 26 27 28 29 30 32 34 35 36 38 41 41 40 40 39 37 37 36 36 38 38 37 36 33 33 34 34 34 35 36 38 38 39 40 40 40 39 34 29 27 25 24 24 24 23 23 23 22 22
12 12 11 11 12 12 12 12 14 15 15 15 15 15 14 13 14 15 16 14 11 11 12 14 16 17 17 17 18 19 21 24 25 24 23 24 25 25 26 28 28 29 31 33 34 35 39 40 39 39 38 37 38 38 37 38 39 38 39 37 35 35 36 36 35 36 37 39 40 41 41 40 39 36 33 29 27 27 26 25 24 24 24 24 23
12 11 10 10 10 10 11 12 13 14 15 16 16 16 16 16 16 17 17 15 13 12 13 15 17 17 17 16 17 19 21 23 24 23 22 23 23 23 23 25 27 27 29 31 33 34 36 38 38 38 38 37 37 38 38 39 40 40 40 40 37 36 37 38 37 36 35 37 40 41 40 40 39 38 36 32 29 28 27 26 25 25 25 25 24
12 10 9 9 9 9 11 12 13 14 16 17 18 18 17 17 17 17 17 16 14 14 14 15 16 17 16 16 17 19 21 23 24 24 24 25 25 23 22 23 24 25 26 28 31 33 34 35 35 36 38 37 37 38 39 39 40 41 41 40 39 37 37 39 39 36 35 37 39 40 39 37 37 38 37 34 31 29 28 27 26 26 26 26 26
10 9 9 9 9 9 10 11 12 14 16 17 18 19 19 19 18 17 17 16 15 14 14 15 16 17 16 16 17 18 20 23 24 24 26 26 26 26 25 25 25 24 24 25 28 30 32 33 33 34 36 36 36 37 38 40 41 42 41 40 40 39 38 39 39 37 35 36 38 39 38 37 37 38 37 35 32 30 29 28 28 27 27 27 27
9 8 9 9 9 9 10 11 13 14 16 17 18 19 19 19 18 17 16 16 15 14 14 15 17 17 15 16 17 18 20 23 24 25 28 29 27 26 27 27 28 27 26 25 27 31 32 32 32 33 35 36 36 37 39 40 41 42 41 40 40 40 38 38 39 38 36 36 37 38 38 37 37 38 39 37 34 33 30 29 29 28 27 28 27
8 9 9 9 9 10 10 12 13 14 16 17 18 19 19 18 17 16 16 16 15 15 15 16 17 16 16 17 18 19 21 24 25 25 28 29 28 29 30 30 30 30 29 27 28 30 33 34 34 35 36 37 38 39 39 40 40 41 41 40 39 40 39 39 39 38 37 37 39 38 36 34 35 37 39 38 36 33 29 27 28 28 27 28 27
9 9 9 8 9 10 11 12 13 15 16 16 17 17 17 17 17 16 16 16 16 17 17 17 17 17 18 18 20 21 22 23 24 25 27 28 29 31 34 35 34 30 28 29 29 29 31 34 35 36 37 38 39 40 39 39 40 41 42 40 40 41 41 40 41 40 39 38 40 40 37 34 36 38 38 37 34 30 27 27 28 26 25 27 27
11 10 9 8 8 10 11 13 15 16 15 15 15 16 17 18 18 18 17 17 17 18 18 18 18 19 20 20 22 24 24 23 24 24 25 27 29 31 35 37 35 30 27 27 30 30 30 32 33 34 34 35 37 38 38 38 39 41 43 43 43 44 43 42 42 41 41 42 42 41 38 37 38 38 37 35 32 29 27 27 27 25 24 25 25
12 11 10 8 9 10 12 14 15 15 14 14 16 17 18 18 19 19 19 17 18 18 18 19 19 19 21 21 22 24 25 24 23 23 24 27 28 31 35 37 33 29 26 25 27 29 28 29 29 30 30 32 35 38 39 40 42 43 44 44 45 46 46 45 44 41 41 42 44 43 41 40 40 39 37 35 31 28 27 26 25 24 23 24 24
13 13 11 10 11 11 13 14 15 14 15 16 17 18 19 19 19 20 19 17 17 17 18 19 19 19 20 21 22 23 24 24 23 22 24 27 27 30 35 37 32 27 24 20 20 23 24 24 26 27 29 30 33 37 40 41 43 44 44 45 46 48 48 48 47 44 42 42 44 45 43 41 40 39 37 33 29 27 26 25 24 24 23 24 24
13 13 12 12 12 12 14 15 15 15 16 17 18 18 18 19 19 19 18 16 16 17 17 18 18 18 19 20 21 22 23 24 23 22 23 26 28 29 33 37 34 28 22 14 12 16 19 20 23 25 28 31 33 36 38 40 41 42 42 44 46 48 49 49 49 47 44 42 43 44 42 40 38 37 35 31 27 25 24 23 22 22 21 21 22
13 14 13 13 13 14 15 16 16 17 18 19 18 17 17 18 18 17 17 16 16 16 16 17 18 18 19 20 21 21 20 22 22 21 23 26 28 29 32 34 35 31 23 14 9 13 17 20 24 26 28 31 34 37 40 41 41 42 43 45 46 48 49 50 49 48 46 44 43 42 40 38 35 34 33 30 26 24 23 21 21 19 17 19 22
14 14 13 13 13 14 15 16 16 17 19 19 17 16 17 17 16 16 16 16 16 16 16 17 19 20 19 20 20 19 17 19 21 21 22 25 27 29 31 33 35 33 26 19 14 13 14 18 24 27 29 30 30 33 37 38 38 40 44 45 44 44 47 49 48 48 46 44 42 41 39 36 32 30 30 28 25 23 21 20 20 20 20 22 24
15 14 13 12 12 13 13 14 16 17 18 18 17 17 17 16 16 16 16 17 17 16 17 18 20 21 20 20 20 17 15 16 19 20 21 23 26 29 31 33 35 36 31 25 22 19 19 21 21 19 20 23 24 24 27 31 32 32 37 41 41 41 43 44 44 44 43 42 40 39 37 34 31 29 28 25 23 22 22 22 23 23 24 25 25
16 15 14 12 12 12 13 14 15 16 17 18 17 16 16 15 15 15 16 18 17 16 17 18 18 20 20 20 19 15 14 15 17 19 21 22 24 27 29 31 33 35 34 30 26 25 24 24 25 23 18 16 17 17 17 23 27 27 29 34 38 38 39 40 40 40 39 38 37 37 36 34 31 29 27 25 23 23 24 26 25 24 25 25 24
14 13 12 11 11 12 12 13 13 14 16 17 17 17 16 14 15 15 16 18 17 16 17 17 17 18 19 19 18 14 12 14 16 18 21 22 23 24 27 29 30 32 33 32 31 30 28 26 25 26 27 23 17 12 10 13 19 26 31 33 36 37 37 36 37 38 37 38 38 38 38 37 33 29 27 25 24 23 25 26 25 24 24 23 21
12 12 12 11 11 11 12 12 13 14 16 17 17 16 15 14 15 16 17 17 17 17 17 17 17 18 18 18 17 14 12 13 15 17 20 22 23 23 25 26 27 28 30 31 32 33 31 29 28 27 27 27 23 15 8 4 7 15 23 29 33 37 37 36 36 37 37 38 38 38 38 36 33 29 27 25 25 25 25 26 25 23 22 21 19
13 13 13 12 11 11 11 12 14 15 16 17 16 15 15 15 16 16 16 16 17 17 17 17 17 17 16 16 16 14 12 12 14 16 18 20 21 22 23 24 24 25 26 27 30 32 32 31 30 28 27 25 25 22 16 7 1 6 10 15 19 24 28 32 35 35 36 37 37 36 36 34 31 29 27 26 25 26 27 27 25 23 22 20 19
14 13 14 13 12 12 12 13 14 15 15 15 15 14 14 13 13 13 13 14 15 15 16 16 17 16 15 15 14 14 12 12 13 15 17 18 19 20 21 22 21 21 22 23 25 28 30 32 31 29 27 25 23 22 22 17 8 3 6 9 13 15 17 21 26 28 30 33 34 33 33 32 30 28 26 26 26 27 27 25 23 22 22 21 20
14 13 13 13 13 13 13 14 14 14 13 12 12 12 12 11 11 11 12 14 15 15 15 16 17 17 16 14 13 12 11 10 12 14 15 16 17 17 18 20 20 19 19 20 21 23 24 28 31 29 27 26 24 21 21 22 19 13 7 5 8 11 14 16 20 23 25 27 29 30 31 30 28 27 26 25 25 26 26 24 23 22 21 20 19
15 15 15 15 15 14 14 14 14 13 11 9 9 10 10 10 10 11 13 14 15 15 15 16 17 17 17 15 13 11 10 9 10 12 13 14 15 15 15 16 17 19 19 18 18 19 20 22 26 27 26 27 27 25 23 23 22 19 15 12 8 4 8 13 19 24 27 28 28 28 28 28 27 26 26 25 24 24 24 22 22 22 21 20 20
18 18 17 17 16 16 15 14 13 12 10 8 7 8 8 8 9 11 13 14 15 15 15 15 16 17 17 16 14 12 11 10 10 11 12 14 14 14 14 14 14 16 18 17 16 16 17 18 21 22 23 25 27 27 27 25 23 21 19 16 13 11 9 7 13 20 26 29 29 27 26 26 25 24 24 24 23 23 22 20 19 20 20 20 20
20 18 17 16 15 16 16 14 12 11 10 8 7 6 6 7 9 12 14 15 15 15 15 15 15 15 16 16 14 12 11 11 11 11 12 13 14 13 14 14 13 13 14 15 16 14 14 15 17 18 19 21 23 25 26 25 23 23 22 19 16 14 14 12 11 15 20 24 25 24 22 20 19 18 18 18 16 16 16 15 16 17 18 19 20
19 17 16 15 15 15 16 14 11 10 10 9 7 6 6 8 11 13 15 15 15 15 15 15 15 14 15 16 15 12 11 11 11 12 12 13 14 13 13 13 13 12 12 12 13 13 13 13 14 14 15 17 18 19 20 20 21 22 23 22 20 17 14 13 13 14 18 21 23 22 20 19 18 17 16 15 13 12 12 12 13 14 16 17 19
17 17 16 15 16 15 15 14 12 10 10 10 8 8 9 11 12 14 14 15 15 16 16 16 15 14 15 15 15 13 12 11 12 12 13 14 14 14 13 12 12 12 12 11 11 11 12 12 11 10 11 12 14 15 15 15 17 19 21 22 22 20 17 13 13 14 16 18 19 20 18 17 16 16 15 14 13 11 11 10 11 12 13 13 15
16 16 15 14 14 14 14 14 13 12 10 10 10 10 12 13 13 14 14 14 14 15 16 16 15 15 15 15 14 13 12 11 11 12 13 13 15 15 14 12 11 11 11 11 11 11 11 11 10 10 10 11 13 14 14 13 13 15 16 17 19 20 19 17 14 13 12 12 12 14 16 15 14 14 14 14 12 10 8 8 8 7 7 8 10
14 14 14 13 13 14 14 15 15 14 12 10 11 12 14 14 13 13 14 14 13 14 15 15 14 14 14 14 14 13 12 11 11 11 12 13 14 14 14 12 11 11 10 10 10 10 11 12 10 10 11 13 14 14 13 11 10 12 13 13 14 17 19 20 19 17 14 12 10 9 9 10 10 10 10 10 9 7 6 6 6 6 5 5 4
15 14 14 13 14 15 16 17 16 15 13 11 12 14 14 13 12 12 13 14 14 14 13 13 13 12 13 13 13 13 13 12 10 10 11 12 12 13 13 12 11 10 9 9 9 9 11 13 12 10 10 12 13 15 14 10 8 9 10 11 11 13 16 18 19 20 19 18 15 12 9 6 6 6 6 5 5 4 4 4 4 5 6 6 4
17 16 15 15 15 16 17 17 16 15 13 12 13 15 14 12 11 11 12 13 14 13 12 12 12 12 12 12 13 13 13 12 11 10 10 10 10 12 12 12 10 10 9 9 9 9 11 13 13 11 11 10 12 15 16 13 9 8 8 9 9 10 12 15 17 19 20 20 19 17 14 11 8 6 4 3 2 2 3 4 5 5 6 6 6
19 19 18 17 16 15 16 16 15 15 14 14 14 14 13 11 9 9 10 11 12 13 12 11 11 12 12 13 13 14 14 13 12 11 10 9 8 9 11 11 10 9 9 9 8 8 10 12 13 13 11 10 10 13 15 16 13 10 8 8 8 8 8 10 12 15 17 17 17 17 16 15 13 11 9 6 4 3 3 5 6 6 6 5 5
21 21 20 19 18 16 14 13 14 15 15 14 12 12 11 10 10 9 9 9 10 10 11 11 11 12 12 12 12 13 13 12 12 11 10 9 7 7 8 9 8 8 9 9 9 9 9 10 12 13 12 11 10 10 12 14 14 12 9 9 10 9 8 7 7 9 11 12 13 13 13 12 12 11 10 9 7 6 4 4 5 6 6 5 6
22 22 21 21 20 18 16 15 15 14 13 11 10 10 10 10 10 9 7 7 8 8 9 11 11 11 12 12 11 11 10 11 11 11 10 9 7 6 6 6 6 7 9 10 11 11 10 10 10 11 12 12 11 10 10 11 12 12 11 10 10 10 9 8 6 5 6 7 9 10 11 11 10 9 8 7 6 6 4 3 3 5 6 6 6
22 21 20 20 19 19 17 14 10 9 10 9 9 9 8 8 9 8 6 6 7 7 8 9 9 9 9 9 9 9 9 10 11 12 11 10 8 7 7 6 6 7 8 9 10 11 11 10 10 9 10 11 11 10 9 9 10 11 10 9 8 8 8 8 7 5 4 3 3 3 5 7 7 7 7 5 4 3 3 2 2 4 7 9 9
20 18 17 17 16 16 15 11 7 8 9 10 9 7 7 7 7 6 6 6 7 7 8 8 7 6 6 6 6 8 9 10 11 11 10 9 8 7 6 6 7 7 7 8 9 10 10 10 10 9 9 9 10 10 9 7 7 8 8 8 7 6 6 6 5 4 2 1 2 1 2 2 2 3 4 4 3 3 3 3 4 6 8 10 11
15 14 16 17 15 15 14 10 7 7 9 9 7 5 5 5 5 5 6 7 8 9 10 9 8 7 6 5 6 7 9 9 9 9 8 7 7 7 7 7 7 7 8 9 10 10 11 11 11 10 9 8 8 8 8 7 6 5 5 5 5 5 5 4 3 2 1 1 2 2 2 2 4 6 6 5 4 4 5 6 7 8 9 10 11
12 12 14 14 13 14 13 10 7 7 9 10 7 5 5 4 4 4 5 6 9 11 12 11 10 10 8 7 7 7 8 8 7 8 8 8 8 8 8 8 7 8 8 9 9 10 11 11 11 10 9 8 6 6 6 5 4 3 2 2 2 2 1 1 1 1 2 3 3 5 5 5 7 9 7 5 5 5 5 6 8 9 10 10 11
11 10 11 11 11 11 11 10 10 11 11 8 5 4 4 4 3 3 5 7 10 13 14 13 11 11 10 10 9 9 8 7 7 8 9 9 9 9 9 9 10 10 9 10 10 10 11 11 10 10 9 8 7 6 5 4 2 1 1 2 3 2 2 2 2 2 3 4 5 6 6 8 9 9 7 6 6 5 5 5 7 8 9 10 10
10 8 8 9 10 10 10 12 12 11 8 5 3 4 4 3 2 4 7 9 10 12 14 12 10 10 10 10 9 8 8 7 7 7 9 10 10 10 10 10 11 11 10 10 11 11 11 11 11 10 9 8 7 6 6 5 4 2 2 2 2 3 3 4 4 4 5 5 6 7 7 8 9 9 7 7 8 5 4 5 7 8 10 11 12
10 9 9 10 11 10 10 10 9 6 2 3 3 3 3 4 6 7 8 9 10 11 12 10 8 8 7 8 8 8 7 6 6 7 8 8 8 9 10 10 10 10 10 10 10 10 11 10 10 10 10 10 9 8 7 7 7 6 5 4 3 2 2 3 4 5 6 7 7 8 8 9 9 8 8 7 8 7 6 7 8 9 11 13 15
8 9 8 7 7 5 4 4 2 1 2 2 3 4 5 7 8 8 7 7 8 9 9 8 6 5 5 6 6 7 6 5 5 5 5 5 6 7 7 7 7 9 9 9 9 9 9 9 9 10 11 11 11 11 10 10 10 10 10 9 8 6 5 4 4 4 5 6 6 7 8 8 8 9 10 10 9 9 9 10 11 13 14 15 16
5 6 6 3 1 1 1 1 1 2 4 5 6 8 8 8 9 8 7 6 6 7 7 6 4 3 3 3 5 5 4 3 3 2 3 3 3 3 3 4 5 6 6 6 6 6 7 7 8 9 9 10 10 10 11 11 11 12 12 12 12 12 10 9 9 8 7 7 8 7 8 7 6 7 10 11 11 11 11 12 13 14 16 17 17
3 4 4 2 0 1 1 2 3 4 6 7 8 9 9 9 9 8 7 7 6 6 5 4 3 3 3 4 4 4 3 2 2 2 2 2 2 3 4 4 4 4 4 4 4 4 5 6 7 7 7 8 8 8 8 9 10 10 10 10 11 12 12 12 12 12 12 12 12 11 10 10 10 8 7 7 8 9 11 12 12 13 15 16 15
4 2 1 1 1 2 3 5 6 8 9 10 9 8 8 7 7 6 5 5 4 3 1 1 0 1 1 2 3 3 3 3 3 3 3 2 3 3 3 3 4 4 5 6 5 5 6 6 7 7 8 8 8 9 9 9 9 9 9 9 9 10 10 10 10 11 12 13 13 13 12 12 12 11 10 9 7 6 5 7 10 12 12 13 12
1 2 2 3 4 6 7 8 9 11 11 10 8 6 4 3 3 3 2 2 3 3 3 3 2 2 2 3 3 3 4 4 4 4 4 3 3 3 3 4 5 7 8 9 9 8 8 8 8 9 9 9 10 10 10 10 10 9 9 9 9 10 9 9 9 9 10 11 12 12 12 11 11 12 12 11 10 9 8 6 5 8 10 11 10
4 4 4 5 6 7 8 9 10 10 9 7 4 3 3 3 3 3 3 3 4 4 4 3 3 3 4 4 4 4 4 4 4 4 4 4 4 4 5 6 8 9 10 10 10 11 11 11 11 11 11 11 11 11 11 11 11 11 10 10 10 10 10 10 10 9 9 10 10 11 11 10 10 10 10 11 11 11 10 11 10 7 5 8 9
6 6 6 6 7 7 8 8 8 7 5 4 3 4 5 5 6 6 5 5 5 4 4 5 5 5 5 5 4 5 5 5 5 5 6 6 7 6 7 8 9 10 10 11 11 12 12 13 13 14 14 14 14 13 13 13 13 12 12 12 11 11 11 11 11 11 11 11 11 12 12 12 12 12 12 12 13 13 12 12 12 12 10 7 5
7 7 7 7 7 7 6 6 5 4 3 3 4 6 7 8 9 9 8 7 6 6 6 6 7 7 6 6 6 6 7 7 7 8 9 9 9 8 7 8 8 9 9 10 10 11 11 12 13 13 14 14 14 14 14 14 13 13 12 11 11 12 12 12 11 11 11 11 12 12 12 13 14 15 15 15 16 16 16 15 14 15 15 13 10
7 7 6 6 6 5 5 4 2 2 4 4 5 7 8 9 9 9 8 7 7 6 6 6 7 7 7 7 7 8 8 9 10 11 11 11 10 8 7 6 6 6 7 7 8 9 9 10 11 12 13 13 14 14 14 14 14 13 12 12 12 12 12 12 12 12 12 12 12 12 12 12 13 14 15 16 16 16 16 16 15 16 17 17 16
Wind_Direction
314 315 313 314 314 316 320 321 322 323 324 323 322 321 320 320 320 321 322 320 318 318 316 311 307 305 304 305 305 303 300 298 296 294 291 286 282 279 276 274 272 270 267 264 260 257 256 256 255 255 255 256 257 257 255 254 256 256 253 250 249 247 246 246 248 254 257 256 256 256 254 255 254 246 241 245 250 254 256 253 252 253 255 256 258
316 315 313 313 314 315 317 318 320 323 326 327 327 324 320 319 319 319 321 320 315 313 312 309 307 307 309 311 313 314 312 310 308 305 300 293 285 279 275 273 271 269 267 264 261 256 254 254 253 253 253 254 254 254 253 252 253 256 255 253 252 250 246 245 247 251 254 255 256 256 254 252 251 248 244 247 252 255 256 255 255 257 257 258 261
316 314 312 310 310 312 315 317 320 324 328 333 337 336 329 324 321 320 322 321 313 308 307 306 305 305 308 313 317 320 320 318 317 313 307 301 293 285 278 275 273 270 266 263 261 258 255 253 251 251 252 251 251 250 250 251 251 253 254 254 255 252 247 245 247 250 253 254 255 256 255 252 250 248 248 252 255 255 254 255 257 259 259 260 263
315 311 308 305 303 307 312 315 320 326 330 336 342 345 341 333 328 323 320 316 310 307 308 310 309 307 309 315 320 323 324 324 324 319 311 305 299 291 283 279 277 273 268 263 260 258 257 255 252 251 251 250 250 249 248 249 250 251 252 255 256 254 249 246 247 250 254 254 253 254 254 254 252 251 252 254 255 252 251 252 255 259 260 260 262
311 306 301 299 298 302 309 313 318 325 330 334 339 344 343 338 332 325 319 312 303 302 312 317 316 312 313 317 320 323 327 330 331 326 319 312 305 296 288 284 282 277 271 265 258 255 257 258 256 253 250 248 248 248 247 248 250 251 253 257 258 255 250 246 246 250 253 252 250 251 253 255 254 253 253 253 253 251 249 250 254 258 260 258 259
305 299 295 294 294 300 307 311 316 322 328 331 333 336 337 334 331 326 322 317 305 300 307 317 321 320 317 318 319 322 330 336 336 332 327 324 318 310 301 294 290 282 273 266 260 257 256 257 258 254 250 247 246 246 247 248 251 253 255 258 258 256 251 246 244 248 253 251 248 248 251 253 254 254 252 251 253 252 250 251 254 257 257 255 256
300 297 294 292 292 298 305 310 316 321 325 327 328 329 330 328 325 322 321 321 314 305 303 312 324 327 324 323 323 324 333 338 337 333 330 328 325 319 313 307 300 291 280 270 263 260 257 256 256 254 251 248 246 246 248 248 250 253 255 256 256 254 251 246 243 245 250 251 247 245 247 250 252 253 251 251 254 253 250 252 253 254 254 254 255
299 298 293 289 287 292 302 310 315 319 322 324 325 325 325 323 319 317 318 319 319 315 309 313 325 333 335 335 332 330 335 338 336 332 331 331 329 326 322 317 309 299 289 277 266 262 260 256 252 249 249 249 247 247 249 249 249 251 253 253 252 252 249 244 242 244 246 248 249 248 248 248 248 250 250 250 252 251 248 251 255 254 253 255 256
298 295 289 283 281 286 298 308 314 317 319 321 322 322 321 318 315 314 316 317 318 318 318 319 323 328 333 337 337 336 338 339 337 333 332 333 331 329 328 325 318 307 294 282 271 264 261 258 254 251 250 250 249 250 250 250 250 250 250 248 246 248 247 243 241 243 243 245 248 249 247 245 243 245 246 248 249 249 250 253 256 256 257 258 256
297 295 289 285 285 291 299 308 312 315 317 318 317 317 316 314 312 312 314 316 316 316 317 319 319 319 323 330 334 337 338 338 337 336 335 334 333 332 332 330 326 315 297 284 275 267 261 259 258 258 257 254 252 251 251 251 250 250 250 247 243 244 244 241 241 243 242 243 246 245 243 241 242 243 244 246 248 248 248 251 255 258 261 260 255
296 297 296 294 295 300 306 311 312 313 315 313 311 313 315 313 312 313 313 314 316 315 315 317 317 315 317 323 330 334 336 337 338 339 339 338 337 337 338 337 333 323 306 287 276 271 267 263 262 263 260 256 253 251 251 251 251 250 249 247 245 245 244 241 240 241 241 242 244 243 240 240 244 246 245 246 247 246 246 250 256 261 263 261 258
297 297 300 301 300 303 309 313 313 311 308 306 306 311 315 315 316 316 313 311 312 314 315 317 317 315 314 319 327 332 335 337 339 342 343 342 342 343 345 346 339 324 311 295 278 272 269 265 263 262 260 255 252 252 253 254 254 252 249 246 244 245 246 245 242 240 241 242 242 241 240 242 246 247 244 244 244 244 247 251 256 261 264 262 260
298 297 299 303 304 306 309 311 310 307 305 305 306 309 312 315 318 318 313 309 309 313 317 319 320 317 314 318 326 332 336 338 339 343 347 347 346 346 350 354 347 327 312 303 288 280 278 274 269 265 263 260 258 257 257 256 254 252 249 246 243 242 244 246 245 244 244 245 243 242 243 246 248 245 242 242 243 245 249 252 256 263 265 261 260
298 296 296 300 305 307 308 307 305 302 304 307 308 309 311 314 317 317 312 308 309 315 320 324 327 325 320 321 326 332 337 339 339 345 351 351 348 348 353 359 357 340 322 311 290 278 277 277 274 270 266 264 261 259 257 255 252 250 247 244 241 239 240 241 243 244 244 245 245 245 247 249 250 248 245 243 245 248 250 254 260 265 262 258 258
296 294 293 295 301 304 306 305 302 301 305 309 310 311 312 312 314 312 309 308 313 319 323 328 334 333 327 324 327 332 339 341 342 348 354 353 352 353 356 3 6 356 343 340 318 286 277 275 274 270 268 266 263 259 257 254 251 249 247 243 239 238 238 237 237 238 239 241 243 244 245 245 247 249 247 245 247 250 249 253 258 257 252 253 255
294 294 293 293 295 300 303 303 302 306 311 312 312 312 312 312 311 309 308 311 317 320 321 326 332 332 328 323 323 332 344 345 345 351 355 353 354 357 359 6 12 8 3 14 14 343 320 308 293 278 270 271 270 263 258 255 251 248 246 242 238 237 237 235 233 233 235 238 240 241 241 240 241 244 243 242 246 246 243 246 249 246 246 251 254
293 294 295 293 292 294 298 300 304 310 315 315 313 311 311 311 311 311 313 316 321 321 319 324 332 334 332 325 321 329 347 350 349 354 356 353 356 359 0 5 12 12 10 19 27 20 12 1 340 309 283 278 279 271 257 251 249 245 238 235 235 236 236 234 232 232 232 234 236 237 237 237 238 238 237 236 239 238 237 239 241 242 245 249 253
293 294 296 295 291 290 291 296 303 310 315 319 319 316 314 315 316 319 319 320 322 320 318 324 332 336 337 330 321 326 344 350 353 359 359 356 357 1 1 2 8 11 11 16 23 24 20 14 6 359 348 324 302 287 267 253 248 239 229 228 231 234 234 233 231 230 229 230 231 232 232 233 234 234 232 230 230 230 232 236 239 240 243 248 252
296 293 291 288 284 286 288 292 299 308 315 320 322 320 319 318 320 323 322 320 320 318 318 324 329 334 338 334 325 325 338 349 356 3 4 1 0 3 3 2 5 8 10 14 19 21 18 15 13 12 11 6 349 315 284 262 250 239 231 229 231 233 233 232 229 226 222 222 222 223 226 229 230 229 226 224 227 230 232 234 235 236 240 244 246
291 280 274 271 271 279 285 289 295 304 311 316 320 320 318 317 320 322 321 320 320 319 318 320 323 329 337 336 327 322 329 343 352 359 2 3 4 6 5 2 3 6 10 14 17 16 15 16 19 17 13 14 12 360 331 285 253 239 232 229 228 230 230 228 227 224 219 215 215 218 222 225 226 225 222 222 227 229 228 228 229 231 234 238 237
279 268 263 260 260 269 281 288 295 302 307 311 315 315 313 313 317 321 323 325 326 325 323 320 321 327 334 336 329 321 322 334 343 348 353 357 1 6 7 4 3 4 10 16 18 16 14 15 19 20 16 15 16 14 13 11 272 223 223 226 227 226 223 219 220 221 218 214 212 214 218 221 222 221 221 225 228 225 223 223 224 227 229 231 231
275 268 263 261 261 267 278 286 294 303 306 307 309 312 311 311 315 320 326 330 331 330 328 325 323 325 330 334 331 323 322 333 340 342 344 347 353 0 5 6 4 2 6 13 17 18 15 13 16 19 19 19 20 22 25 31 42 113 190 213 222 225 222 216 214 215 217 215 213 212 215 217 218 219 223 227 225 221 220 221 222 223 225 227 227
273 270 267 267 266 268 275 282 291 300 302 301 306 311 308 307 312 319 325 328 330 328 326 324 324 325 328 332 334 328 325 333 341 343 342 342 345 352 359 3 5 3 3 6 11 17 16 12 13 17 20 23 26 28 30 35 40 50 73 136 191 212 219 219 216 214 214 215 213 212 215 216 217 221 226 224 219 217 217 217 217 218 218 214 213
271 273 273 272 271 269 271 278 287 294 294 297 308 312 309 308 311 314 317 321 326 329 327 323 324 326 328 330 334 335 332 332 340 345 347 346 346 347 351 356 2 6 6 4 6 13 17 13 12 18 25 30 31 32 35 38 41 43 49 62 80 128 185 201 208 211 214 217 216 215 217 220 221 223 221 216 210 207 206 206 209 214 212 207 207
271 275 276 275 275 271 266 272 282 286 286 296 310 313 314 315 313 313 315 318 322 328 330 326 325 328 330 331 333 336 335 337 342 348 352 353 351 349 349 351 356 4 10 12 10 14 22 19 15 21 32 35 34 32 33 38 45 47 49 56 65 71 87 137 178 187 192 199 206 211 214 215 214 210 206 205 206 203 200 202 209 214 214 211 210
278 282 279 277 279 272 262 267 277 279 280 292 307 312 313 316 317 321 325 324 323 326 330 329 327 327 330 333 335 334 333 338 344 347 351 353 353 350 349 350 352 357 7 14 15 18 28 27 20 22 30 32 32 31 30 34 43 51 54 59 69 76 79 89 117 140 148 157 169 179 182 180 175 172 176 186 195 198 200 205 210 214 217 218 218
287 289 282 279 281 273 260 260 268 274 277 285 294 302 307 313 321 328 330 328 324 323 326 328 327 326 326 330 334 333 328 331 338 344 349 354 356 354 350 349 351 355 1 9 12 16 24 25 22 22 22 23 27 31 33 35 42 50 55 58 64 74 85 92 103 113 117 124 133 139 141 141 142 145 154 165 172 179 187 195 202 208 215 219 218
287 289 285 282 281 271 257 256 267 276 279 278 281 294 304 310 316 323 327 325 322 321 324 326 327 325 324 326 330 331 328 325 330 339 347 353 357 357 354 351 351 355 1 7 10 14 15 13 15 20 21 19 20 26 33 40 43 46 51 55 59 65 74 86 101 111 111 111 116 121 125 129 134 138 143 150 156 165 175 183 192 201 206 207 209
281 285 286 284 276 262 251 256 271 284 287 280 277 288 299 304 308 314 319 318 316 317 320 323 326 326 325 326 329 331 330 326 325 331 339 346 353 355 353 350 351 356 3 9 15 23 24 19 16 20 24 23 19 19 26 35 39 43 49 55 61 66 68 72 79 91 100 104 111 119 122 122 122 125 133 141 145 148 156 162 166 175 185 190 203
274 280 280 274 267 258 255 262 274 284 290 286 279 284 294 299 301 307 313 313 311 312 314 318 324 327 327 330 333 335 335 331 325 326 332 339 347 352 351 346 346 352 2 8 16 28 33 30 26 27 30 30 27 24 23 25 32 41 47 54 63 71 73 71 69 69 75 82 90 102 114 122 124 124 125 130 133 131 132 135 129 118 116 131 180
268 276 276 272 269 267 267 269 274 280 285 284 279 282 290 294 296 302 308 308 306 305 307 313 321 324 327 332 337 339 338 335 329 325 327 332 340 348 349 344 341 344 353 1 10 24 30 28 27 32 37 36 33 30 29 29 36 44 48 51 59 68 74 75 73 68 67 69 71 71 73 90 122 140 138 135 136 128 117 111 107 99 88 85 100
265 273 275 274 277 278 275 272 272 276 280 278 274 278 284 287 291 299 303 302 301 301 303 307 313 319 324 328 332 336 336 335 332 326 321 324 334 342 344 341 340 341 342 348 2 19 26 26 27 31 36 41 41 36 35 37 43 51 58 58 55 57 66 75 78 75 70 65 62 61 61 67 80 101 122 135 146 144 125 104 96 97 99 98 105
266 275 277 272 272 274 274 272 272 273 274 271 268 274 282 285 289 299 300 297 295 295 297 302 307 314 320 323 326 330 331 331 332 329 323 319 322 332 338 339 344 346 342 345 359 15 22 26 31 35 37 43 45 40 38 41 44 51 57 49 40 46 63 74 78 81 81 77 70 63 59 60 64 72 81 87 89 102 122 120 112 109 111 123 145
268 277 280 275 271 269 267 269 271 270 267 266 268 275 280 283 293 303 301 291 286 287 291 299 306 313 320 325 326 326 327 329 332 334 333 326 316 321 334 341 348 357 360 3 10 16 18 21 28 33 36 39 42 41 41 42 43 48 53 45 37 42 58 69 74 81 87 93 96 91 83 74 67 64 66 69 70 72 88 124 145 146 142 148 163
268 275 279 276 273 272 270 270 269 264 260 262 270 274 275 284 298 307 303 293 290 291 296 304 312 319 324 328 329 328 330 334 337 339 340 334 322 314 316 321 337 355 5 13 18 20 20 18 20 25 29 32 34 35 38 42 44 48 57 60 55 50 49 53 62 70 77 90 102 109 111 108 101 93 82 69 60 59 69 97 160 181 183 184 187
269 274 280 280 276 275 276 273 269 269 270 268 264 266 275 292 303 306 306 306 307 310 315 319 323 325 324 324 329 335 340 343 343 341 339 337 332 320 314 323 348 359 4 13 19 21 21 21 21 20 21 25 30 30 31 41 47 48 53 62 66 59 55 58 63 67 75 87 100 122 130 128 127 130 130 120 105 102 106 116 187 209 211 210 213
273 271 279 286 283 278 276 272 269 279 278 262 248 256 282 299 301 302 309 318 324 331 336 339 338 329 318 319 333 344 347 343 336 329 326 328 333 336 341 359 15 17 18 22 23 21 21 22 24 22 18 19 26 30 33 40 44 43 47 55 63 68 72 76 76 73 68 350 307 272 191 169 179 182 173 163 155 155 162 181 204 213 214 213 214
281 276 282 287 284 277 275 272 266 266 260 249 248 270 289 289 293 305 317 331 342 345 345 348 350 347 341 340 346 351 348 337 323 317 320 329 343 359 14 23 23 24 31 34 31 27 26 25 25 26 23 21 21 24 29 32 32 36 47 52 57 67 75 81 92 104 134 249 278 269 245 230 235 229 219 211 207 195 188 196 206 212 217 218 218
291 286 283 282 275 266 263 258 248 241 238 238 249 273 279 275 285 305 323 337 342 341 341 343 346 350 355 360 359 357 354 347 342 347 357 3 8 16 27 34 34 34 36 36 33 31 30 28 27 25 24 25 25 23 26 29 27 29 32 23 22 40 42 31 111 160 199 213 228 240 238 233 239 244 239 222 211 202 200 212 216 217 222 228 227
294 286 275 270 266 260 254 247 240 233 227 225 239 268 273 271 278 305 331 338 335 334 337 341 344 349 356 3 4 2 2 2 4 8 12 18 25 29 32 36 38 39 38 36 33 31 29 28 28 24 22 23 26 27 32 37 33 8 328 316 307 300 297 292 279 260 247 231 230 238 237 235 247 263 274 268 248 218 194 213 230 228 227 232 232
284 279 270 265 261 256 245 232 222 216 216 231 270 280 275 284 311 324 331 334 331 330 335 341 350 357 2 8 10 7 3 8 18 22 24 28 32 34 35 38 40 41 39 37 34 30 26 24 23 20 18 18 18 19 22 22 20 14 350 313 291 278 271 264 256 252 247 238 235 238 238 241 253 266 275 273 269 255 211 214 231 233 229 231 233
276 274 267 254 243 236 226 214 203 197 218 279 296 297 302 318 326 326 328 330 329 329 332 340 352 4 13 22 21 12 8 20 33 31 27 31 39 40 37 35 40 45 43 38 33 29 25 23 23 22 20 17 14 11 6 2 3 5 5 359 344 318 289 267 254 243 236 233 232 231 231 233 240 249 256 257 259 259 250 243 243 242 239 239 241
282 268 254 239 228 222 210 196 197 305 343 333 327 327 323 320 318 317 319 321 318 319 324 329 341 1 23 34 26 13 13 27 35 34 39 49 52 44 34 33 43 49 44 37 33 31 27 26 29 31 27 22 20 18 13 9 7 4 2 360 357 351 341 327 311 286 263 254 249 244 242 237 229 229 234 238 240 244 246 248 250 251 250 252 256
287 255 242 236 233 236 213 122 19 350 346 341 332 325 321 317 311 306 301 295 290 294 301 305 314 336 354 7 9 4 4 11 19 39 81 86 61 46 55 68 69 59 46 36 34 35 33 32 36 39 35 30 28 27 23 18 14 10 8 8 6 1 355 349 343 337 328 317 309 300 290 283 267 241 229 227 228 231 234 238 245 248 249 254 261
194 213 235 256 282 237 287 355 357 346 340 336 328 321 313 306 300 294 287 282 280 282 286 290 302 320 331 345 3 11 17 39 64 93 123 127 116 104 96 82 67 56 52 50 47 38 28 23 24 27 25 22 22 22 16 9 5 5 8 12 11 8 6 2 358 355 351 344 338 333 326 319 313 302 280 255 242 236 231 232 238 245 249 253 256
154 143 256 307 345 345 345 349 347 343 342 338 329 320 311 301 296 295 296 301 312 325 332 342 6 347 348 15 32 34 42 65 80 86 90 95 96 89 68 34 10 2 6 11 12 8 2 357 354 355 355 354 356 360 1 359 355 353 356 3 6 5 4 2 359 355 352 349 347 347 346 343 338 333 326 314 303 293 266 240 234 238 246 252 253
53 10 329 324 334 338 340 344 345 345 344 341 334 330 329 325 326 337 352 14 38 63 87 98 100 96 82 72 70 67 63 64 66 65 61 51 38 24 355 331 325 330 335 339 342 345 345 344 344 346 348 347 348 351 355 358 356 352 349 349 349 347 345 344 342 341 339 338 338 339 341 343 344 344 340 331 323 324 328 317 274 242 238 242 246
330 329 324 327 331 332 336 341 343 344 345 348 355 10 24 33 41 46 55 66 74 82 87 84 79 76 71 66 65 63 58 51 43 33 23 9 356 339 318 308 310 317 322 325 328 331 332 333 336 338 340 342 344 345 347 349 350 348 345 341 336 333 331 328 326 324 321 320 320 320 321 325 330 333 336 335 330 327 330 333 335 326 279 246 244
324 327 330 331 333 335 338 341 343 350 1 20 49 65 63 63 66 67 66 71 77 77 69 62 59 55 50 47 46 42 34 24 15 8 360 352 343 330 316 309 308 310 314 317 320 322 324 327 329 331 334 337 340 342 344 345 344 342 339 335 331 330 329 325 322 320 315 310 306 303 302 305 307 307 309 313 315 316 317 321 328 335 336 323 285
321 325 328 329 330 335 340 343 351 13 49 74 81 79 76 75 73 70 66 64 64 61 55 49 44 39 32 27 24 18 11 6 3 0 357 355 350 341 331 321 313 310 312 315 317 319 322 323 326 330 333 336 339 343 346 348 349 348 345 341 337 335 333 331 330 327 323 319 314 309 303 301 301 301 301 301 300 301 302 303 305 309 316 322 324
320 320 321 322 325 331 339 347 15 73 97 95 82 74 71 70 68 65 60 55 50 46 40 30 22 17 12 7 3 359 356 355 355 354 355 358 1 1 359 353 342 334 331 330 329 330 331 332 333 336 337 339 343 347 348 350 351 352 353 352 349 345 343 341 339 337 335 333 330 326 321 314 309 306 305 304 302 299 298 297 296 295 297 301 306